sat.trackr.live / text

‹ back to catalog

STARLINK-35471

NORAD 65864 · 2025-223L

PAYLOAD ACTIVE UNKNOWN

§ Identity

Operator
Country
US
Launch date
2025-10-03
Launch site
AFWTR
Launch vehicle
Mass (kg)
RCS (m²)

Purposes: comms

External: N2YO · Heavens-Above · Gunter

§ Orbital elements

Epoch: 2026-05-25T03:24:06.189984Z

Period
94.11 min
Inclination
53.1618°
Eccentricity
0.0001618
Mean motion
15.30201479 rev/d
Perigee alt
474.1 km
Apogee alt
476.3 km
Semi-major
6,853.3 km
B*
5.8733e-4
RAAN
298.8589°
Arg perigee
90.5702°
Mean anomaly
269.5484°
Rev number
3,591

§ Raw data

STARLINK-354711 65864U 25223L   26145.14173831  .00017077  00000+0  58733-3 0  99992 65864  53.1618 298.8589 0001618  90.5702 269.5484 15.30201479 35911

JSON: /api/v1/satellites/65864 · /tle

For live sub-satellite position, see the globe view (requires WebGL).

§ Visibility from observer

Set your observer location to see the next 7 days of passes ≥ 10°. The values pass through the URL so the page stays shareable.

No JS? Fill the form by hand. The geolocation button needs JavaScript.